Regional Weather Roundup
Issued by NWS Cleveland, OH

Home | Current Version | Previous Version | Graphics & Text | Print | Product List | Glossary On
Versions: 1 2 3 4 5 6 7 8 9 10 11 12 13 14 15 16 17 18 19 20 21 22 23 24 25 26 27 28 29 30 31 32 33 34 35 36 37 38 39 40 41 42 43 44 45 46 47 48 49 50
118
ASUS41 KCLE 212102
RWRCLE
OHIO REGIONAL WEATHER ROUNDUP
NATIONAL WEATHER SERVICE CLEVELAND, OH
400 PM EST SAT JAN 21 2017

NOTE: "FAIR" INDICATES FEW OR NO CLOUDS BELOW 12,000 FEET WITH NO
SIGNIFICANT WEATHER AND/OR OBSTRUCTIONS TO VISIBILITY.

OHZ001>008-015>018-024>027-034-035-043-044-212200-
   NORTHWEST OHIO

CITY           SKY/WX    TMP DP  RH WIND       PRES   REMARKS
DEFIANCE       MOSUNNY   59  50  72 S9        29.57F
FINDLAY        PTSUNNY   59  50  72 MISG      29.60S
TOLEDO EXPRESS CLOUDY    59  54  83 S6        29.59S
TOLEDO EXEC    MOSUNNY   60  54  80 S8        29.61S
LIMA           CLOUDY    58  53  84 S9        29.60F
$$

OHZ009>014-019>023-028>033-038-089-212200-
   NORTHEAST OHIO

CITY           SKY/WX    TMP DP  RH WIND       PRES   REMARKS
CLE-HOPKINS    CLOUDY    61  50  67 S9        29.67F
CLE-LAKEFRONT  CLOUDY    62  51  67 S9        29.64S
CUY CO. ARPT   PTSUNNY   61  52  72 S9        29.66S
LORAIN-ELYRIA  PTSUNNY   59  50  72 S10       29.65S
ASHTABULA      CLOUDY    60  52  74 S8        29.68S
AKRON-CANTON   CLOUDY    59  50  72 S7        29.67F
WOOSTER        PTSUNNY   57  51  80 S9        29.67F
MANSFIELD      PTSUNNY   58  51  78 S8        29.65F
YOUNGSTOWN     CLOUDY    60  51  72 S6        29.69S
$$

OHZ042-051>053-060>062-070>072-077>081-212200-
  SOUTHWEST OHIO

CITY           SKY/WX    TMP DP  RH WIND       PRES   REMARKS
CINC-COVINGTON CLOUDY    65  54  67 S12       29.62S
CINC-LUNKEN    CLOUDY    63  55  75 S8        29.63S
HAMILTON       CLOUDY    63  54  72 S5        29.63S
DAYTON         CLOUDY    61  50  67 SE9       29.62F
WRIGHT-PAT AFB NOT AVBL
DAYTON GENERAL PTSUNNY   61  52  72 SE7       29.62S
WILMINGTON     CLOUDY    58  53  84 S8        29.64S
$$

OHZ036-037-039>041-045>050-054>059-063>069-073>076-082>088-212200-
  CENTRAL AND SOUTHEAST OHIO

CITY           SKY/WX    TMP DP  RH WIND       PRES   REMARKS
COLUMBUS       CLOUDY    61  50  67 S7        29.65S
OSU AIRPORT    CLOUDY    58  52  80 S7        29.65S
BOLTON FIELD   MOSUNNY  N/A N/A N/A S5        29.66S
RICKENBACK AFB   N/A     58  52  79 S5        29.66R
NEWARK         PTSUNNY   61  51  70 S6        29.65S
MARION         CLOUDY    58  51  78 S9        29.64F
LANCASTER      CLOUDY    62  50  64 S5        29.66S
ZANESVILLE     PTSUNNY   62  50  64 S7        29.67F
NEW PHILLY     NOT AVBL
$$




USA.gov is the U.S. government's official web portal to all federal, state and local government web resources and services.